OBJECT DB, 58570

Orbit data source: Space-Track

You're viewing an Uncataloged Satellite

Recently launched and/or uncataloged satellites may have evolving metadata. Metadata may include but not limited to: Owner, Maufacturer, Bus, Motor, and Mission.

OBJECT DB, 58570 is a satellite in SSO that was launched on Sat, 11 Nov 2023 UTC via an FALCON 9 launch vehicle from the Air Force Western Test Range (AFWTR). Unknown objects in Earth's orbit typically refer to objects detected orbiting the Earth but have not yet been identified or cataloged. These objects could be anything from previously untracked satellites, spent rocket stages, debris from satellite collisions, or even natural meteoroids temporarily captured by Earth's gravity.

Loading next visibility...
Identifier
58570, 2023-174DB
Orbit
SSO
Country
Flag of TBDTBD
Related business
None
Manufacturer
Unknown
Mission
Commercial Communications
Bus & Motor
Unknown
Mass
Unknown
Launch date (UTC)
2023-11-11 (2 years ago)
Launch vehicle
FALCON 9
Launch site
Air Force Western Test Range (AFWTR)
Object type
Unknown
Shape & HBR
Box, 0.1 m
Radar Cross Section
0.080 m², Small (<0.1 m²)

Expand to show TLE details & history
Last TLE update: 9 hours ago

TLE from 9 hours ago
0 OBJECT DB
1 58570U 23174DB  26126.92897306  .00077004  00000-0  62742-3 0  9995
2 58570  97.3757 221.3618 0003336 239.9125 120.1807 15.70400474139671
Epoch: 2026-05-06T22:17Z
TLE epoch observation values (Epoch: 2026-05-06T22:17:43.272Z)
Latitude
-0.00001°
Longitude
22.14908°
Altitude
362.041 km
Speed
7.691 km/s
True Right ascension
14h 45m 26s
True Declination
0° 00' 00"
Sunlit
Object was in full shadow at epoch
Visualization orbit readout
Latitude
Unknown
Longitude
Unknown
Altitude
Unknown
Speed
Unknown
Apparent Right ascension
Unknown
Apparent Declination
Unknown
Sunlit
N/A
Visualization observer readout
Local Sidereal Time
14:52:28
Azimuth
Unknown
Elevation
Unknown
Doppler factor
Unknown
Orbital elements
Apogee altitude
356.895 km
Perigee altitude
352.403 km
Semi-major axis
6,732.786 km
Eccentricity
0.00033
Inclination
97.3757°
RAAN
221.3618°
Arg. of periapsis
239.9125°
True anomaly
120.21374°
Mean anomaly
120.1807°
Eccentric anomaly
120.19722°
Mean motion
3.92872 °/min
Orbital period
91.63 mins
BSTAR
0.00062742
Loading maneuver chart data...
Computing Atmospheric mass density...
Loading historical data...
Loading historical data...
Loading historical data...
Loading historical data...
Loading historical data...
Loading historical data...
Loading historical data...

Documentation

Showing up to 5 results
|